Location: Arroyo de Valdeoliva
(40.1604°N, 4.9878°W)
Time: 08:09:49
(UTC+00:00)

Cosmos 1825 Rocket - Pass Details

Date: 17 March 2026
Orbit: 596 x 624 km, 82.5° (Epoch: 18 April)

Event Time Altitude Azimuth Distance (km) Brightness Sun altitude
Rises 04:49:54 0° 8° (N) 2,896 7.3 -19.5°
Reaches altitude 10° 04:52:43 10° 27° (NNE) 1,981 6.7 -19.0°
Maximum altitude 04:55:50 19° 72° (ENE) 1,478 6.5 -18.4°
Drops below altitude 10° 04:58:55 10° 118° (ESE) 1,958 6.8 -17.8°
Sets 05:01:40 0° 136° (SE) 2,851 7.4 -17.3°
